Simultaneous Nadir Overpasses (SNOs) Predictions

Prediction of SNOs between METOP-C and LANDSAT-8 Satellite Orbit:

Table of predicted SNOs for the next 14.0 days since TLE Epoch: 11/2/2019
Index Date (METOP-C) Time (METOP-C) Lat,Lon (METOP-C) SZA (METOP-C ) Date (LANDSAT-8) Time (LANDSAT-8) Lat,Lon (LANDSAT-8) SZA (LANDSAT-8 ) Distance(km) Time Diff (sec)
1 11/03/2019 07:00:26 -81.16, -64.69 81.43 11/03/2019 07:00:52 -81.16, -64.61 81.40 1.45 26
2 11/03/2019 07:51:05 81.18, 103.17 98.66 11/03/2019 07:50:18 81.17, 103.13 98.63 0.77 47
3 11/06/2019 02:34:47 -81.16, 1.89 80.55 11/06/2019 02:35:07 -81.16, 1.80 80.55 1.53 20
4 11/06/2019 03:25:27 81.17, 169.40 99.49 11/06/2019 03:24:33 81.17, 169.52 99.48 2.17 54
5 11/08/2019 22:09:09 -81.16, 68.09 79.75 11/08/2019 22:09:22 -81.16, 68.18 79.74 1.52 13
6 11/08/2019 22:59:47 81.19,-123.62 100.39 11/08/2019 22:58:47 81.19,-123.76 100.34 2.43 60
7 11/11/2019 17:43:28 -81.18, 135.04 78.90 11/11/2019 17:43:35 -81.18, 134.88 78.92 2.73 7
8 11/11/2019 18:34:08 81.18, -57.39 101.14 11/11/2019 18:33:01 81.18, -57.44 101.10 1.04 67
9 11/14/2019 12:27:11 81.15, 33.21 101.72 11/14/2019 12:28:24 81.14, 33.17 101.74 0.64 73
10 11/14/2019 13:17:50 -81.17,-158.76 78.19 11/14/2019 13:17:50 -81.17,-158.81 78.20 0.95 0




NCC Satellite Simultaneous Nadir Overpasses (SNOs) Prediction Service
